Time,TemperatureF,DewpointF,PressureIn,WindDirection,WindDirectionDegrees,WindSpeedMPH,WindSpeedGustMPH,Humidity,HourlyPrecipIn,Conditions,Clouds,dailyrainin,SoftwareType,DateUTC
2016-02-12 00:04:00,40.3,29.8,30.60,NE,54,2.9,3.0,66,-99.99,,,0.00,meteobridge,2016-02-12 08:04:00,
2016-02-12 00:09:00,40.3,29.1,30.60,NE,56,0.0,0.0,64,-99.99,,,0.00,meteobridge,2016-02-12 08:09:00,
2016-02-12 00:14:00,40.3,29.5,30.60,NE,55,2.0,2.0,65,-99.99,,,0.00,meteobridge,2016-02-12 08:14:00,
2016-02-12 00:19:00,40.3,29.5,30.60,NE,55,0.0,0.0,65,-99.99,,,0.00,meteobridge,2016-02-12 08:19:00,
2016-02-12 00:24:00,40.1,29.3,30.61,NE,54,0.0,2.0,65,-99.99,,,0.00,meteobridge,2016-02-12 08:24:00,
2016-02-12 00:39:00,40.1,29.3,30.60,NE,54,0.0,0.0,65,-99.99,,,0.00,meteobridge,2016-02-12 08:39:00,
2016-02-12 00:44:00,39.9,29.5,30.60,NE,55,0.0,0.0,66,-99.99,,,0.00,meteobridge,2016-02-12 08:44:00,
2016-02-12 00:50:00,39.7,28.9,30.60,NE,55,0.9,2.0,65,-99.99,,,0.00,meteobridge,2016-02-12 08:50:00,
2016-02-12 00:55:00,39.6,29.1,30.60,NE,51,0.9,1.0,66,-99.99,,,0.00,meteobridge,2016-02-12 08:55:00,
2016-02-12 01:00:00,39.6,29.1,30.60,NE,51,0.9,2.0,66,-99.99,,,0.00,meteobridge,2016-02-12 09:00:00,
2016-02-12 01:05:00,39.4,28.2,30.60,NE,51,0.0,2.0,64,-99.99,,,0.00,meteobridge,2016-02-12 09:05:00,
2016-02-12 01:10:00,39.4,28.6,30.60,ENE,72,0.9,3.0,65,-99.99,,,0.00,meteobridge,2016-02-12 09:10:00,
2016-02-12 01:15:00,39.2,28.4,30.60,ENE,71,0.0,0.0,65,-99.99,,,0.00,meteobridge,2016-02-12 09:15:00,
2016-02-12 01:20:00,39.2,28.0,30.60,ENE,71,0.0,2.0,64,-99.99,,,0.00,meteobridge,2016-02-12 09:20:00,
2016-02-12 01:26:00,39.0,27.9,30.60,ENE,69,0.0,2.0,64,-99.99,,,0.00,meteobridge,2016-02-12 09:26:00,
2016-02-12 01:31:00,39.0,27.9,30.60,ENE,69,0.9,2.0,64,-99.99,,,0.00,meteobridge,2016-02-12 09:31:00,
2016-02-12 01:36:00,39.0,28.2,30.60,SSE,152,0.0,1.0,65,-99.99,,,0.00,meteobridge,2016-02-12 09:36:00,
2016-02-12 01:41:00,39.0,27.9,30.60,East,95,2.0,3.0,64,-99.99,,,0.00,meteobridge,2016-02-12 09:41:00,
2016-02-12 01:46:00,38.8,27.7,30.60,East,90,0.0,2.0,64,-99.99,,,0.00,meteobridge,2016-02-12 09:46:00,
2016-02-12 01:51:00,38.8,27.7,30.60,ENE,78,2.9,3.0,64,-99.99,,,0.00,meteobridge,2016-02-12 09:51:00,
2016-02-12 01:56:00,38.8,27.7,30.60,East,83,0.0,1.0,64,-99.99,,,0.00,meteobridge,2016-02-12 09:56:00,
2016-02-12 02:01:00,38.7,27.1,30.60,East,83,0.0,0.0,63,-99.99,,,0.00,meteobridge,2016-02-12 10:01:00,
2016-02-12 02:06:00,38.7,27.5,30.60,ESE,113,0.9,2.0,64,-99.99,,,0.00,meteobridge,2016-02-12 10:06:00,
2016-02-12 02:11:00,38.7,27.1,30.60,East,83,0.0,0.0,63,-99.99,,,0.00,meteobridge,2016-02-12 10:11:00,
2016-02-12 02:16:00,38.7,27.1,30.60,ENE,78,0.0,0.0,63,-99.99,,,0.00,meteobridge,2016-02-12 10:16:00,
2016-02-12 02:21:00,38.7,27.5,30.60,ENE,78,0.0,0.0,64,-99.99,,,0.00,meteobridge,2016-02-12 10:21:00,
2016-02-12 02:26:00,38.7,27.1,30.60,East,82,0.0,0.0,63,-99.99,,,0.00,meteobridge,2016-02-12 10:26:00,
2016-02-12 02:32:00,38.5,27.3,30.60,ENE,78,0.0,0.0,64,-99.99,,,0.00,meteobridge,2016-02-12 10:32:00,
2016-02-12 02:37:00,38.5,27.7,30.60,ENE,76,0.9,1.0,65,-99.99,,,0.00,meteobridge,2016-02-12 10:37:00,
2016-02-12 02:42:00,38.3,27.9,30.60,ENE,75,0.0,0.0,66,-99.99,,,0.00,meteobridge,2016-02-12 10:42:00,
2016-02-12 02:47:00,38.1,27.3,30.60,ENE,75,0.0,0.0,65,-99.99,,,0.00,meteobridge,2016-02-12 10:47:00,
2016-02-12 02:53:00,37.9,27.7,30.60,ENE,76,0.0,0.0,66,-99.99,,,0.00,meteobridge,2016-02-12 10:53:00,
2016-02-12 02:58:00,37.8,27.5,30.60,ENE,76,0.0,0.0,66,-99.99,,,0.00,meteobridge,2016-02-12 10:58:00,
2016-02-12 03:03:00,37.9,27.1,30.60,ENE,76,0.9,2.0,65,-99.99,,,0.00,meteobridge,2016-02-12 11:03:00,
2016-02-12 03:08:00,37.9,27.7,30.60,ENE,78,0.0,2.0,66,-99.99,,,0.00,meteobridge,2016-02-12 11:08:00,
2016-02-12 03:14:00,37.8,27.5,30.60,ENE,75,0.0,0.0,66,-99.99,,,0.00,meteobridge,2016-02-12 11:14:00,
2016-02-12 03:19:00,37.8,27.1,30.60,ENE,75,0.0,0.0,65,-99.99,,,0.00,meteobridge,2016-02-12 11:19:00,
2016-02-12 03:24:00,37.6,27.7,30.60,ENE,75,0.0,2.0,67,-99.99,,,0.00,meteobridge,2016-02-12 11:24:00,
2016-02-12 03:29:00,37.4,27.5,30.60,ENE,75,0.0,0.0,67,-99.99,,,0.00,meteobridge,2016-02-12 11:29:00,
2016-02-12 03:34:00,37.4,27.9,30.60,ENE,75,0.0,0.0,68,-99.99,,,0.00,meteobridge,2016-02-12 11:34:00,
2016-02-12 03:39:00,37.2,27.7,30.61,ENE,75,0.0,0.0,68,-99.99,,,0.00,meteobridge,2016-02-12 11:39:00,
2016-02-12 03:45:00,37.2,27.7,30.61,ENE,75,0.0,0.0,68,-99.99,,,0.00,meteobridge,2016-02-12 11:45:00,
2016-02-12 03:50:00,37.2,27.3,30.61,ENE,75,0.0,0.0,67,-99.99,,,0.00,meteobridge,2016-02-12 11:50:00,
2016-02-12 03:55:00,37.2,27.7,30.61,ENE,75,0.0,0.0,68,-99.99,,,0.00,meteobridge,2016-02-12 11:55:00,
2016-02-12 04:00:00,37.0,27.5,30.61,ENE,75,0.0,0.0,68,-99.99,,,0.00,meteobridge,2016-02-12 12:00:00,
2016-02-12 04:05:00,37.0,28.2,30.61,ENE,75,0.0,0.0,70,-99.99,,,0.00,meteobridge,2016-02-12 12:05:00,
2016-02-12 04:11:00,37.0,27.9,30.61,ENE,75,0.0,0.0,69,-99.99,,,0.00,meteobridge,2016-02-12 12:11:00,
2016-02-12 04:16:00,36.9,27.3,30.61,ENE,75,2.0,2.0,68,-99.99,,,0.00,meteobridge,2016-02-12 12:16:00,
2016-02-12 04:21:00,36.9,27.3,30.61,ENE,75,2.0,2.0,68,-99.99,,,0.00,meteobridge,2016-02-12 12:21:00,
2016-02-12 04:31:00,36.7,27.9,30.61,ENE,75,2.0,2.0,70,-99.99,,,0.00,meteobridge,2016-02-12 12:31:00,
2016-02-12 04:37:00,36.7,27.9,30.61,ENE,75,0.0,0.0,70,-99.99,,,0.00,meteobridge,2016-02-12 12:37:00,
2016-02-12 04:42:00,36.5,27.7,30.62,ENE,78,0.0,2.0,70,-99.99,,,0.00,meteobridge,2016-02-12 12:42:00,
2016-02-12 04:47:00,36.7,27.1,30.62,ENE,78,0.0,0.0,68,-99.99,,,0.00,meteobridge,2016-02-12 12:47:00,
2016-02-12 04:52:00,36.7,26.8,30.62,ENE,76,0.0,2.0,67,-99.99,,,0.00,meteobridge,2016-02-12 12:52:00,
2016-02-12 04:57:00,36.7,26.8,30.63,ENE,76,0.9,2.0,67,-99.99,,,0.00,meteobridge,2016-02-12 12:57:00,
2016-02-12 05:02:00,36.7,26.4,30.63,ENE,76,0.9,2.0,66,-99.99,,,0.00,meteobridge,2016-02-12 13:02:00,
2016-02-12 05:07:00,36.7,25.7,30.63,East,88,2.0,2.0,64,-99.99,,,0.00,meteobridge,2016-02-12 13:07:00,
2016-02-12 05:13:00,36.7,25.7,30.63,East,82,0.9,3.0,64,-99.99,,,0.00,meteobridge,2016-02-12 13:13:00,
2016-02-12 05:23:00,36.9,26.2,30.63,East,79,0.0,0.0,65,-99.99,,,0.00,meteobridge,2016-02-12 13:23:00,
2016-02-12 05:28:00,36.7,26.4,30.63,East,79,0.0,0.0,66,-99.99,,,0.00,meteobridge,2016-02-12 13:28:00,
2016-02-12 05:33:00,36.3,26.4,30.63,ENE,78,0.0,0.0,67,-99.99,,,0.00,meteobridge,2016-02-12 13:33:00,
2016-02-12 05:38:00,36.1,26.2,30.67,East,79,0.9,1.0,67,-99.99,,,0.00,meteobridge,2016-02-12 13:38:00,
2016-02-12 05:43:00,36.1,26.6,30.67,ENE,78,0.0,3.0,68,-99.99,,,0.00,meteobridge,2016-02-12 13:43:00,
2016-02-12 05:48:00,36.0,26.1,30.67,ENE,78,0.0,1.0,67,-99.99,,,0.00,meteobridge,2016-02-12 13:48:00,
2016-02-12 05:54:00,36.0,26.1,30.67,ENE,76,0.0,2.0,67,-99.99,,,0.00,meteobridge,2016-02-12 13:54:00,
2016-02-12 05:59:00,36.0,25.7,30.67,East,83,2.0,2.0,66,-99.99,,,0.00,meteobridge,2016-02-12 13:59:00,
2016-02-12 06:04:00,36.0,25.3,30.67,East,79,0.0,0.0,65,-99.99,,,0.00,meteobridge,2016-02-12 14:04:00,
2016-02-12 06:09:00,36.0,25.0,30.67,ENE,75,0.9,4.0,64,-99.99,,,0.00,meteobridge,2016-02-12 14:09:00,
2016-02-12 06:14:00,36.0,24.6,30.67,East,80,0.0,2.0,63,-99.99,,,0.00,meteobridge,2016-02-12 14:14:00,
2016-02-12 06:19:00,36.0,25.0,30.67,ENE,78,2.0,3.0,64,-99.99,,,0.00,meteobridge,2016-02-12 14:19:00,
2016-02-12 06:24:00,36.0,24.6,30.67,ENE,76,0.9,2.0,63,-99.99,,,0.00,meteobridge,2016-02-12 14:24:00,
2016-02-12 06:29:00,36.0,24.6,30.67,ENE,76,0.0,0.0,63,-99.99,,,0.00,meteobridge,2016-02-12 14:29:00,
2016-02-12 06:35:00,35.8,24.8,30.67,ENE,78,0.0,0.0,64,-99.99,,,0.00,meteobridge,2016-02-12 14:35:00,
2016-02-12 06:40:00,35.8,25.2,30.69,ENE,78,0.0,0.0,65,-99.99,,,0.00,meteobridge,2016-02-12 14:40:00,
2016-02-12 06:45:00,35.6,25.7,30.69,ENE,78,0.0,0.0,67,-99.99,,,0.00,meteobridge,2016-02-12 14:45:00,
2016-02-12 06:50:00,35.2,25.3,30.69,ENE,78,0.0,0.0,67,-99.99,,,0.00,meteobridge,2016-02-12 14:50:00,
2016-02-12 06:55:00,35.2,25.7,30.69,East,89,0.9,2.0,68,-99.99,,,0.00,meteobridge,2016-02-12 14:55:00,
2016-02-12 07:00:00,35.1,25.2,30.69,East,82,0.0,1.0,67,-99.99,,,0.00,meteobridge,2016-02-12 15:00:00,
2016-02-12 07:06:00,35.1,25.2,30.69,East,82,0.0,2.0,67,-99.99,,,0.00,meteobridge,2016-02-12 15:06:00,
2016-02-12 07:11:00,35.1,25.2,30.69,East,82,0.0,0.0,67,-99.99,,,0.00,meteobridge,2016-02-12 15:11:00,
2016-02-12 07:16:00,35.2,25.3,30.69,East,90,0.9,1.0,67,-99.99,,,0.00,meteobridge,2016-02-12 15:16:00,
2016-02-12 07:21:00,35.1,25.2,30.69,East,79,0.9,3.0,67,-99.99,,,0.00,meteobridge,2016-02-12 15:21:00,
2016-02-12 07:26:00,35.2,25.0,30.69,ENE,78,0.9,2.0,66,-99.99,,,0.00,meteobridge,2016-02-12 15:26:00,
2016-02-12 07:31:00,35.2,24.3,30.69,ESE,104,4.0,5.0,64,-99.99,,,0.00,meteobridge,2016-02-12 15:31:00,
2016-02-12 07:36:00,35.6,24.6,30.69,ENE,73,0.9,5.0,64,-99.99,,,0.00,meteobridge,2016-02-12 15:36:00,
2016-02-12 07:41:00,36.0,24.6,30.71,ENE,78,0.9,2.0,63,-99.99,,,0.00,meteobridge,2016-02-12 15:41:00,
2016-02-12 07:46:00,36.0,24.3,30.71,East,80,0.0,2.0,62,-99.99,,,0.00,meteobridge,2016-02-12 15:46:00,
2016-02-12 07:51:00,36.1,24.8,30.71,East,89,0.0,2.0,63,-99.99,,,0.00,meteobridge,2016-02-12 15:51:00,
2016-02-12 07:57:00,36.1,24.8,30.71,East,83,0.0,0.0,63,-99.99,,,0.00,meteobridge,2016-02-12 15:57:00,
2016-02-12 08:02:00,36.3,25.3,30.71,East,83,0.0,0.0,64,-99.99,,,0.00,meteobridge,2016-02-12 16:02:00,
2016-02-12 08:07:00,36.3,26.1,30.71,East,83,0.0,0.0,66,-99.99,,,0.00,meteobridge,2016-02-12 16:07:00,
2016-02-12 08:12:00,36.3,26.1,30.71,East,83,0.0,0.0,66,-99.99,,,0.00,meteobridge,2016-02-12 16:12:00,
2016-02-12 08:17:00,36.3,26.1,30.71,East,82,0.0,0.0,66,-99.99,,,0.00,meteobridge,2016-02-12 16:17:00,
2016-02-12 08:22:00,36.7,26.4,30.71,East,80,0.0,0.0,66,-99.99,,,0.00,meteobridge,2016-02-12 16:22:00,
2016-02-12 08:27:00,36.7,26.1,30.70,East,79,0.0,1.0,65,-99.99,,,0.00,meteobridge,2016-02-12 16:27:00,
2016-02-12 08:33:00,36.7,25.7,30.70,East,79,0.0,0.0,64,-99.99,,,0.00,meteobridge,2016-02-12 16:33:00,
2016-02-12 08:38:00,37.0,25.2,30.70,East,82,0.0,0.0,62,-99.99,,,0.00,meteobridge,2016-02-12 16:38:00,
2016-02-12 08:43:00,37.2,25.3,30.71,East,82,0.0,1.0,62,-99.99,,,0.00,meteobridge,2016-02-12 16:43:00,
2016-02-12 08:48:00,37.6,25.3,30.71,East,83,0.0,0.0,61,-99.99,,,0.00,meteobridge,2016-02-12 16:48:00,
2016-02-12 08:58:00,37.8,25.9,30.71,East,82,0.0,0.0,62,-99.99,,,0.00,meteobridge,2016-02-12 16:58:00,
2016-02-12 09:03:00,37.9,26.4,30.71,East,82,0.0,0.0,63,-99.99,,,0.00,meteobridge,2016-02-12 17:03:00,
2016-02-12 09:09:00,37.9,26.4,30.71,East,82,0.0,0.0,63,-99.99,,,0.00,meteobridge,2016-02-12 17:09:00,
2016-02-12 09:19:00,38.3,26.8,30.71,ENE,73,0.0,2.0,63,-99.99,,,0.00,meteobridge,2016-02-12 17:19:00,
2016-02-12 09:29:00,39.6,27.1,30.70,East,82,0.0,0.0,61,-99.99,,,0.00,meteobridge,2016-02-12 17:29:00,
2016-02-12 09:34:00,40.3,27.9,30.70,East,82,0.0,0.0,61,-99.99,,,0.00,meteobridge,2016-02-12 17:34:00,
2016-02-12 09:39:00,40.8,26.8,30.69,ESE,116,0.0,2.0,57,-99.99,,,0.00,meteobridge,2016-02-12 17:39:00,
2016-02-12 09:44:00,41.2,27.1,30.69,ESE,107,0.0,1.0,57,-99.99,,,0.00,meteobridge,2016-02-12 17:44:00,
2016-02-12 09:49:00,41.4,27.3,30.69,ENE,73,0.0,1.0,57,-99.99,,,0.00,meteobridge,2016-02-12 17:49:00,
2016-02-12 09:55:00,41.7,27.1,30.69,East,79,0.0,1.0,56,-99.99,,,0.00,meteobridge,2016-02-12 17:55:00,
2016-02-12 10:00:00,42.3,26.8,30.69,East,79,0.0,0.0,54,-99.99,,,0.00,meteobridge,2016-02-12 18:00:00,
2016-02-12 10:05:00,42.6,27.1,30.69,East,79,0.0,0.0,54,-99.99,,,0.00,meteobridge,2016-02-12 18:05:00,
2016-02-12 10:10:00,43.2,27.1,30.68,East,93,0.0,0.0,53,-99.99,,,0.00,meteobridge,2016-02-12 18:10:00,
2016-02-12 10:20:00,44.2,27.3,30.68,East,93,0.0,3.0,51,-99.99,,,0.00,meteobridge,2016-02-12 18:20:00,
2016-02-12 10:26:00,44.6,27.5,30.66,East,82,2.0,2.0,51,-99.99,,,0.00,meteobridge,2016-02-12 18:26:00,
2016-02-12 10:31:00,45.0,27.9,30.66,East,82,0.0,0.0,51,-99.99,,,0.00,meteobridge,2016-02-12 18:31:00,
2016-02-12 10:36:00,45.3,28.2,30.66,East,88,0.9,3.0,51,-99.99,,,0.00,meteobridge,2016-02-12 18:36:00,
2016-02-12 10:41:00,45.9,28.2,30.66,East,88,0.0,1.0,50,-99.99,,,0.00,meteobridge,2016-02-12 18:41:00,
2016-02-12 10:46:00,46.4,29.3,30.66,East,80,0.0,0.0,51,-99.99,,,0.00,meteobridge,2016-02-12 18:46:00,
2016-02-12 10:56:00,47.7,30.0,30.65,East,80,0.0,0.0,50,-99.99,,,0.00,meteobridge,2016-02-12 18:56:00,
2016-02-12 11:01:00,48.6,30.7,30.65,ENE,78,0.0,1.0,50,-99.99,,,0.00,meteobridge,2016-02-12 19:01:00,
2016-02-12 11:06:00,49.5,31.1,30.65,East,86,0.0,0.0,49,-99.99,,,0.00,meteobridge,2016-02-12 19:06:00,
2016-02-12 11:11:00,49.6,30.7,30.63,ENE,76,0.0,0.0,48,-99.99,,,0.00,meteobridge,2016-02-12 19:11:00,
2016-02-12 11:16:00,50.2,31.3,30.63,SE,130,0.0,0.0,48,-99.99,,,0.00,meteobridge,2016-02-12 19:16:00,
2016-02-12 11:21:00,50.5,31.6,30.63,East,85,0.0,0.0,48,-99.99,,,0.00,meteobridge,2016-02-12 19:21:00,
2016-02-12 11:27:00,51.1,32.0,30.62,SE,144,0.0,1.0,48,-99.99,,,0.00,meteobridge,2016-02-12 19:27:00,
2016-02-12 11:32:00,51.8,32.2,30.62,ENE,78,0.0,0.0,47,-99.99,,,0.00,meteobridge,2016-02-12 19:32:00,
2016-02-12 11:37:00,52.3,32.2,30.62,ENE,75,0.9,3.0,46,-99.99,,,0.00,meteobridge,2016-02-12 19:37:00,
2016-02-12 11:42:00,52.7,32.5,30.61,East,89,2.0,2.0,46,-99.99,,,0.00,meteobridge,2016-02-12 19:42:00,
2016-02-12 11:47:00,53.4,33.1,30.61,East,79,0.0,3.0,46,-99.99,,,0.00,meteobridge,2016-02-12 19:47:00,
2016-02-12 11:52:00,53.8,32.4,30.61,ENE,68,0.0,2.0,44,-99.99,,,0.00,meteobridge,2016-02-12 19:52:00,
2016-02-12 11:58:00,54.3,33.4,30.59,ENE,66,0.0,2.0,45,-99.99,,,0.00,meteobridge,2016-02-12 19:58:00,
2016-02-12 12:03:00,55.2,33.6,30.59,ENE,66,0.0,2.0,44,-99.99,,,0.00,meteobridge,2016-02-12 20:03:00,
2016-02-12 12:08:00,56.1,33.3,30.56,ENE,68,0.0,1.0,42,-99.99,,,0.00,meteobridge,2016-02-12 20:08:00,
2016-02-12 12:13:00,56.5,32.4,30.56,ENE,66,0.0,2.0,40,-99.99,,,0.00,meteobridge,2016-02-12 20:13:00,
2016-02-12 12:19:00,57.2,33.1,30.56,ENE,66,0.0,2.0,40,-99.99,,,0.00,meteobridge,2016-02-12 20:19:00,
2016-02-12 12:24:00,57.7,33.6,30.55,ENE,66,0.9,2.0,40,-99.99,,,0.00,meteobridge,2016-02-12 20:24:00,
2016-02-12 12:29:00,58.5,32.4,30.55,ENE,66,0.9,1.0,37,-99.99,,,0.00,meteobridge,2016-02-12 20:29:00,
2016-02-12 12:34:00,58.8,31.3,30.55,East,82,0.9,3.0,35,-99.99,,,0.00,meteobridge,2016-02-12 20:34:00,
2016-02-12 12:39:00,59.2,30.7,30.54,ENE,69,0.0,3.0,34,-99.99,,,0.00,meteobridge,2016-02-12 20:39:00,
2016-02-12 12:44:00,59.5,31.1,30.54,ENE,68,0.0,0.0,34,-99.99,,,0.00,meteobridge,2016-02-12 20:44:00,
2016-02-12 12:49:00,59.7,31.3,30.54,ENE,69,0.0,0.0,34,-99.99,,,0.00,meteobridge,2016-02-12 20:49:00,
2016-02-12 12:54:00,59.9,31.5,30.53,ENE,69,0.0,2.0,34,-99.99,,,0.00,meteobridge,2016-02-12 20:54:00,
2016-02-12 13:04:00,59.7,30.6,30.53,West,264,2.9,5.0,33,-99.99,,,0.00,meteobridge,2016-02-12 21:04:00,
2016-02-12 13:14:00,60.3,30.2,30.52,WNW,284,2.0,5.0,32,-99.99,,,0.00,meteobridge,2016-02-12 21:14:00,
2016-02-12 13:20:00,60.4,32.0,30.52,WNW,284,0.9,5.0,34,-99.99,,,0.00,meteobridge,2016-02-12 21:20:00,
2016-02-12 13:25:00,60.3,31.1,30.51,NW,304,2.0,6.0,33,-99.99,,,0.00,meteobridge,2016-02-12 21:25:00,
2016-02-12 13:30:00,60.1,30.9,30.51,WNW,294,4.0,6.0,33,-99.99,,,0.00,meteobridge,2016-02-12 21:30:00,
2016-02-12 13:35:00,59.7,31.3,30.51,West,280,2.0,5.0,34,-99.99,,,0.00,meteobridge,2016-02-12 21:35:00,
2016-02-12 13:40:00,60.1,31.6,30.50,WNW,295,0.9,2.0,34,-99.99,,,0.00,meteobridge,2016-02-12 21:40:00,
2016-02-12 13:45:00,60.4,31.3,30.50,WNW,294,0.9,3.0,33,-99.99,,,0.00,meteobridge,2016-02-12 21:45:00,
2016-02-12 13:50:00,61.0,31.6,30.50,WNW,295,4.9,5.0,33,-99.99,,,0.00,meteobridge,2016-02-12 21:50:00,
2016-02-12 13:55:00,61.2,31.8,30.49,WNW,296,2.0,2.0,33,-99.99,,,0.00,meteobridge,2016-02-12 21:55:00,
2016-02-12 14:05:00,61.2,31.1,30.49,WNW,298,4.0,6.0,32,-99.99,,,0.00,meteobridge,2016-02-12 22:05:00,
2016-02-12 14:10:00,61.2,32.5,30.49,WNW,296,0.9,3.0,34,-99.99,,,0.00,meteobridge,2016-02-12 22:10:00,
2016-02-12 14:15:00,61.2,32.5,30.49,West,272,2.0,3.0,34,-99.99,,,0.00,meteobridge,2016-02-12 22:15:00,
2016-02-12 14:20:00,61.2,31.8,30.49,North,356,4.9,6.0,33,-99.99,,,0.00,meteobridge,2016-02-12 22:20:00,
2016-02-12 14:25:00,60.6,31.3,30.48,WNW,282,0.0,5.0,33,-99.99,,,0.00,meteobridge,2016-02-12 22:25:00,
2016-02-12 14:31:00,61.0,32.4,30.48,WNW,282,4.9,6.0,34,-99.99,,,0.00,meteobridge,2016-02-12 22:31:00,
2016-02-12 14:36:00,60.6,32.2,30.48,West,274,0.0,3.0,34,-99.99,,,0.00,meteobridge,2016-02-12 22:36:00,
2016-02-12 14:41:00,60.8,32.2,30.50,West,274,0.0,3.0,34,-99.99,,,0.00,meteobridge,2016-02-12 22:41:00,
2016-02-12 14:51:00,61.0,31.6,30.50,West,274,0.0,3.0,33,-99.99,,,0.00,meteobridge,2016-02-12 22:51:00,
2016-02-12 14:56:00,60.8,32.2,30.50,West,274,0.0,2.0,34,-99.99,,,0.00,meteobridge,2016-02-12 22:56:00,
2016-02-12 15:02:00,60.6,32.9,30.50,West,274,0.0,0.0,35,-99.99,,,0.00,meteobridge,2016-02-12 23:02:00,
2016-02-12 15:07:00,60.6,32.9,30.50,West,274,0.0,0.0,35,-99.99,,,0.00,meteobridge,2016-02-12 23:07:00,
2016-02-12 15:12:00,60.8,32.9,30.50,West,274,0.0,0.0,35,-99.99,,,0.00,meteobridge,2016-02-12 23:12:00,
2016-02-12 15:17:00,61.0,30.9,30.50,ENE,65,2.0,4.0,32,-99.99,,,0.00,meteobridge,2016-02-12 23:17:00,
2016-02-12 15:22:00,61.2,30.2,30.50,NE,41,2.9,5.0,31,-99.99,,,0.00,meteobridge,2016-02-12 23:22:00,
2016-02-12 15:32:00,61.2,28.6,30.50,East,90,4.9,10.0,29,-99.99,,,0.00,meteobridge,2016-02-12 23:32:00,
2016-02-12 15:37:00,61.3,30.4,30.50,ESE,109,2.9,11.0,31,-99.99,,,0.00,meteobridge,2016-02-12 23:37:00,
2016-02-12 15:42:00,61.5,28.9,30.50,ENE,78,6.0,8.0,29,-99.99,,,0.00,meteobridge,2016-02-12 23:42:00,
2016-02-12 15:47:00,61.5,28.9,30.50,East,89,4.9,11.0,29,-99.99,,,0.00,meteobridge,2016-02-12 23:47:00,
2016-02-12 15:52:00,61.3,29.7,30.50,WSW,250,4.0,8.0,30,-99.99,,,0.00,meteobridge,2016-02-12 23:52:00,
2016-02-12 15:57:00,61.2,30.2,30.51,NE,55,2.0,7.0,31,-99.99,,,0.00,meteobridge,2016-02-12 23:57:00,
2016-02-12 16:02:00,60.8,30.0,30.51,SE,131,6.0,6.0,31,-99.99,,,0.00,meteobridge,2016-02-13 00:02:00,
2016-02-12 16:07:00,60.6,29.8,30.51,SE,136,4.9,7.0,31,-99.99,,,0.00,meteobridge,2016-02-13 00:07:00,
2016-02-12 16:12:00,60.4,29.7,30.51,WNW,299,4.9,6.0,31,-99.99,,,0.00,meteobridge,2016-02-13 00:12:00,
2016-02-12 16:18:00,60.3,30.2,30.51,ESE,106,6.9,7.0,32,-99.99,,,0.00,meteobridge,2016-02-13 00:18:00,
2016-02-12 16:23:00,60.1,29.3,30.51,East,80,4.9,11.0,31,-99.99,,,0.00,meteobridge,2016-02-13 00:23:00,
2016-02-12 16:28:00,59.9,30.0,30.53,ESE,103,6.9,7.0,32,-99.99,,,0.00,meteobridge,2016-02-13 00:28:00,
2016-02-12 16:48:00,59.2,30.7,30.53,ENE,73,4.0,6.0,34,-99.99,,,0.00,meteobridge,2016-02-13 00:48:00,
2016-02-12 16:53:00,58.8,30.6,30.53,ESE,109,2.9,6.0,34,-99.99,,,0.00,meteobridge,2016-02-13 00:53:00,
2016-02-12 16:58:00,58.5,30.2,30.53,ESE,106,2.9,3.0,34,-99.99,,,0.00,meteobridge,2016-02-13 00:58:00,
2016-02-12 17:03:00,57.9,30.4,30.53,East,90,2.0,6.0,35,-99.99,,,0.00,meteobridge,2016-02-13 01:03:00,
2016-02-12 17:08:00,57.7,30.2,30.54,ESE,119,2.9,6.0,35,-99.99,,,0.00,meteobridge,2016-02-13 01:08:00,
2016-02-12 17:13:00,57.6,30.0,30.54,West,267,0.9,5.0,35,-99.99,,,0.00,meteobridge,2016-02-13 01:13:00,
2016-02-12 17:18:00,57.0,30.4,30.54,ESE,112,4.9,6.0,36,-99.99,,,0.00,meteobridge,2016-02-13 01:18:00,
2016-02-12 17:23:00,56.8,30.9,30.55,East,88,4.0,5.0,37,-99.99,,,0.00,meteobridge,2016-02-13 01:23:00,
2016-02-12 17:28:00,56.5,30.6,30.55,ENE,72,4.9,7.0,37,-99.99,,,0.00,meteobridge,2016-02-13 01:28:00,
2016-02-12 17:33:00,56.1,30.9,30.55,WNW,299,2.9,6.0,38,-99.99,,,0.00,meteobridge,2016-02-13 01:33:00,
2016-02-12 17:38:00,55.8,30.6,30.56,SE,127,4.0,8.0,38,-99.99,,,0.00,meteobridge,2016-02-13 01:38:00,
2016-02-12 17:43:00,55.2,30.0,30.56,East,88,6.0,8.0,38,-99.99,,,0.00,meteobridge,2016-02-13 01:43:00,
2016-02-12 17:48:00,55.0,31.1,30.56,SW,215,6.0,7.0,40,-99.99,,,0.00,meteobridge,2016-02-13 01:48:00,
2016-02-12 17:58:00,54.3,29.3,30.57,NE,49,2.0,6.0,38,-99.99,,,0.00,meteobridge,2016-02-13 01:58:00,
2016-02-12 18:08:00,54.0,30.2,30.58,SSW,203,0.9,6.0,40,-99.99,,,0.00,meteobridge,2016-02-13 02:08:00,
2016-02-12 18:13:00,53.8,30.0,30.58,ENE,68,2.0,4.0,40,-99.99,,,0.00,meteobridge,2016-02-13 02:13:00,
2016-02-12 18:23:00,53.1,29.3,30.59,West,265,2.9,6.0,40,-99.99,,,0.00,meteobridge,2016-02-13 02:23:00,
2016-02-12 18:28:00,52.9,29.8,30.59,NE,54,2.9,5.0,41,-99.99,,,0.00,meteobridge,2016-02-13 02:28:00,
2016-02-12 18:33:00,52.7,29.1,30.59,SSW,198,4.9,7.0,40,-99.99,,,0.00,meteobridge,2016-02-13 02:33:00,
2016-02-12 18:39:00,52.5,28.9,30.58,NW,316,2.9,6.0,40,-99.99,,,0.00,meteobridge,2016-02-13 02:39:00,
2016-02-12 18:44:00,52.2,29.1,30.58,South,186,4.9,6.0,41,-99.99,,,0.00,meteobridge,2016-02-13 02:44:00,
2016-02-12 18:54:00,51.8,28.2,30.59,ESE,102,2.0,5.0,40,-99.99,,,0.00,meteobridge,2016-02-13 02:54:00,
2016-02-12 18:59:00,52.0,28.4,30.59,SSW,212,4.0,7.0,40,-99.99,,,0.00,meteobridge,2016-02-13 02:59:00,
2016-02-12 19:04:00,51.6,28.0,30.59,SE,130,2.9,5.0,40,-99.99,,,0.00,meteobridge,2016-02-13 03:04:00,
2016-02-12 19:09:00,51.4,27.3,30.59,East,79,2.0,5.0,39,-99.99,,,0.00,meteobridge,2016-02-13 03:09:00,
2016-02-12 19:14:00,51.4,26.1,30.59,SW,227,2.0,5.0,37,-99.99,,,0.00,meteobridge,2016-02-13 03:14:00,
2016-02-12 19:19:00,51.4,26.1,30.59,ESE,123,4.9,6.0,37,-99.99,,,0.00,meteobridge,2016-02-13 03:19:00,
2016-02-12 19:24:00,51.4,26.6,30.59,SW,226,6.0,6.0,38,-99.99,,,0.00,meteobridge,2016-02-13 03:24:00,
2016-02-12 19:29:00,51.6,26.2,30.59,West,261,4.0,6.0,37,-99.99,,,0.00,meteobridge,2016-02-13 03:29:00,
2016-02-12 19:34:00,51.3,26.6,30.59,SE,144,4.0,6.0,38,-99.99,,,0.00,meteobridge,2016-02-13 03:34:00,
2016-02-12 19:39:00,51.3,26.6,30.58,ESE,106,2.0,3.0,38,-99.99,,,0.00,meteobridge,2016-02-13 03:39:00,
2016-02-12 19:44:00,50.9,26.8,30.58,ESE,114,0.9,3.0,39,-99.99,,,0.00,meteobridge,2016-02-13 03:44:00,
2016-02-12 19:49:00,50.7,27.3,30.58,East,97,0.9,3.0,40,-99.99,,,0.00,meteobridge,2016-02-13 03:49:00,